Regional Weather Roundup
Issued by NWS Sterling, VA

Home | Current Version | Previous Version | Text Only | Print | Product List | Glossary Off
Versions: 1 2 3 4 5 6 7 8 9 10 11 12 13 14 15 16 17 18 19 20 21 22 23 24 25 26 27 28 29 30 31 32 33 34 35 36 37 38 39 40 41 42 43 44 45 46 47 48 49 50

685
ASUS41 KLWX 080410
RWRLWX

REGIONAL WEATHER ROUNDUP
NATIONAL WEATHER SERVICE BALTIMORE MD/WASHINGTON DC
1100 PM EST WED DEC 07 2016

Note: "FAIR" indicates few or no clouds below 12,000 feet
with no significant weather and/or obstructions to visibility.
 TC=TEMPERATURE CELSIUS

 * =Non NWS site. Station does not report precipitation (e.g. rain,
    snow, etc.), thunder, or fog.

DCZ001-MDZ009-015-VAZ040>042-051-053>054-080500-
WASHINGTON METRO

CITY           SKY/WX    TMP DP  RH WIND       PRES   REMARKS
WASHINGTON NAT PTCLDY    41  36  82 CALM      30.09S
DULLES         PTCLDY    32  29  88 S3        30.08S
ANDREWS AFB    CLEAR     33  30  86 CALM      30.06S
FT BELVOIR     CLEAR     31  29  93 CALM      30.08S
QUANTICO       CLEAR     34  32  92 NW7       30.10S
COLLEGE PARK*  PTCLDY    32  30  93 CALM      30.08S
LEESBURG*      CLOUDY    32  32 100 CALM      30.08S
MANASSAS*        N/A    N/A N/A N/A MISG        N/A
GAITHERSBURG*  PTCLDY    30  25  80 CALM      30.11S

$$

MDZ006>007-011-014-080500-
BALTIMORE METRO

CITY           SKY/WX    TMP DP  RH WIND       PRES   REMARKS
BWI AIRPORT    MOCLDY    32  31  96 CALM      30.07S
MD SCIENCE CTR   N/A     41  31  67 MISG      30.07R
ANNAPOLIS      CLEAR     39  34  82 CALM      30.08S
FORT MEADE*    PTCLDY    30  30 100 CALM      30.10S

$$

MDZ012-015-019>023-080500-
MARYLAND EASTERN SHORE

CITY           SKY/WX    TMP DP  RH WIND       PRES   REMARKS
OCEAN CITY     PTCLDY    36  34  92 CALM      30.08S FOG
SALISBURY      CLOUDY    33  33 100 CALM      30.08S
EASTON*        CLOUDY    36  34  92 CALM      30.11S FOG

$$

MDZ017>025-080500-
SOUTHERN MARYLAND

CITY           SKY/WX    TMP DP  RH WIND       PRES   REMARKS
PATUXENT RIVER PTCLDY    33  32  96 CALM      30.08R
ST INIGOES     CLOUDY    34  32  92 CALM      30.08R
LEONARDTOWN*   NOT AVBL

$$

MDZ003>005-080500-
NORTH CENTRAL MARYLAND

CITY           SKY/WX    TMP DP  RH WIND       PRES   REMARKS
FREDERICK*     NOT AVBL
HAGERSTOWN APT CLOUDY    41  19  41 W5        30.06F
WESTMINSTER*   PTCLDY    37  25  60 NW5       30.05S

$$

MDZ501>502-080500-
WESTERN MARYLAND

CITY           SKY/WX    TMP DP  RH WIND       PRES   REMARKS
OAKLAND*       CLOUDY    28  19  69 W8        29.99F WCI  20
CUMBERLAND*    NOT AVBL

$$

VAZ025>031-080500-
SHENANDOAH VALLEY

CITY           SKY/WX    TMP DP  RH WIND       PRES   REMARKS
WINCHESTER*    PTCLDY    30  27  86 CALM      30.06S
FRONT ROYAL*   FAIR      32  30  93 CALM      30.05S
LURAY*         FAIR      32  32 100 CALM      30.06R
NEW MARKET*    FAIR      28  27  95 CALM      30.05S
STAUNTON*      CLEAR     29  28  97 CALM      30.07S FOG
WAYNESBORO*    FAIR      32  29  88 CALM      30.05S

$$

WVZ021-048>050-054>055-080500-
EASTERN WEST VIRGINIA PANHANDLE

CITY           SKY/WX    TMP DP  RH WIND       PRES   REMARKS
MARTINSBURG    CLOUDY    32  23  69 SE3       30.06S
PETERSBURG*    CLOUDY    29  27  90 CALM      30.07F

$$

VAZ036>039-050-080500-
CENTRAL FOOTHILLS

CITY           SKY/WX    TMP DP  RH WIND       PRES   REMARKS
CHARLOTTESVILL CLEAR     37  32  82 W5        30.07R
CULPEPER*      CLEAR     31  31  99 CALM      30.10R
ORANGE*          N/A     32  32 100 CALM      30.10R
GORDONSVILLE*  FAIR      32  32  99 CALM      30.08R
WARRENTON*     FAIR      28  24  87 CALM      30.08R FOG

$$

VAZ055>057-080500-
NORTH AND CENTRAL PIEDMONT

CITY           SKY/WX    TMP DP  RH WIND       PRES   REMARKS
FREDERICKSBRG* CLOUDY    34  34 100 CALM      30.08R
STAFFORD*      PTCLDY    29  29 100 CALM      30.13R

$$

NCZ024-NYZ072-PAZ021-071-VAZ022-071-080500-
OTHER REGIONAL OBSERVATIONS

CITY           SKY/WX    TMP DP  RH WIND       PRES   REMARKS
NEW YORK CITY  PTCLDY    44  33  65 W6        30.05R
PHILADELPHIA   CLOUDY    38  34  85 S5        30.06F
PITTSBURGH     CLOUDY    36  22  56 SW6       30.05S
ROANOKE        PTCLDY    38  32  79 CALM      30.09R
RICHMOND       MOCLDY    37  33  85 S3        30.09R
RALEIGH        MOCLDY    48  44  86 CALM      30.07S

$$

ANZ530>537-080500-
MARINE OBSERVATIONS

STATION/POSITION TIME  TEMP    WIND        PRES
                       AIR SEA DIR/SP/G
                 (UTC) (F)     (DEG/KT/KT) (MB)
THOMAS PT LIGHT  0400   44 49  270/  5/  5   N/A
BALT KEY BRIDGE  0348   42     270/  4/  4 1018.5R
COVE POINT       0348   44     260/  2/  2 1019.0R
LEWISETTA        0348   41 49  220/  3/  4 1018.5R
SOLOMONS ISLAND  0348   40 50  340/  2/  3   N/A
PINEY POINT      0348          170/  3/  4   N/A

$$





USA.gov is the U.S. government's official web portal to all federal, state and local government web resources and services.